Flugplatz Schmallenberg-Rennefeld (EDKR)

Hier findest Du alle Informationen zum Flugplatz Schmallenberg-Rennefeld (EDKR).

Informationen für Piloten zum Flugplatz Schmallenberg-Rennefeld

Hier findest Du alle relevanten Informationen, die Du als Pilot benötigst, um Schmallenberg-Rennefeld anzufliegen.

Flugplatz: Schmallenberg-Rennefeld ICAO-Code: EDKR
Frequenz Turm: 122,425 Mhz GAFOR Gebiet: 36
Frequenz Ground: 122,425 Mhz Mogas: nein
Platzrunde: N 2200 ft Landegebühr: -
Platzhöhe: - Sunrise: 06:06 Uhr UTC
Pisten: 10/28 - 620 m x 30 m, GRAS Sunset: 16:15 Uhr UTC

Mitglieder, die in Schmallenberg-Rennefeld fliegen

Flugwetter am Flugplatz Schmallenberg-Rennefeld

Die METAR Information stammen aus EDGS (51.92 km entfernt).

METAR Code:
2021/10/15 15:20
EDGS 151520Z 29008KT 270V330 9999 BKN006 09/07 Q1018

Flugschulen am Flugplatz Schmallenberg-Rennefeld

Am Flugplatz Schmallenberg-Rennefeld gibt es leider keine Flugschule.

Benachbarte Flugplätze und Flugschulen

Es gibt 21 weitere Flugplätze in einem Umkreis von 50 km um den Flugplatz Schmallenberg-Rennefeld.

Jetzt anmelden

Passwort vergessen

Umfrage Archiv

Welche Navigations-App nutzt Ihr im Cockpit

SkyDemon
45.5 %
VFRnav
27.3 %
Ich nutze eine andere App
22.7 %
EasyVFR
4.5 %
ForeFlight
0 %
Ich nutze gar keine App
0 %
Stimmen: 22 | Diskussion
Anzeige: Roland Aircraft
Statistik Alle Mitglieder

Aktuell sind 21 Besucher online.

Anzeige: VFR Sprechfunk Simulator Anzeige: Pocket FMS